When you browse on this site, cookies collect data to enhance your experience and personalize the content and advertising you see.
Visit our Privacy Policy to learn more. By continuing to use the site, you agree to this use of cookies and data.
  • In Spain
  • List of Countries
  • For 7 days
  • Water Temperature
  • Satellite Maps
  • Weather Map
  • Weather Widgets
  • user-avatar
    Login

    Hourly Weather Herāt

    Today, 17 November, Saturday

    Time Temperature Precipitation Wind Pressure Humidity
    00:00 +15°C° 0 mm 2 mps 682 mmHg 43%
    01:00 +15°C° 0 mm 2 mps 681 mmHg 43%
    02:00 +15°C° 0 mm 2 mps 681 mmHg 45%
    03:00 +15°C° 0 mm 2 mps 681 mmHg 46%
    04:00 +15°C° 0 mm 2 mps 681 mmHg 48%
    05:00 +15°C° 0.1 mm 2 mps 681 mmHg 50%
    06:00 +15°C° 0.1 mm 1 mps 681 mmHg 53%
    07:00 +14°C° 0.1 mm 1 mps 681 mmHg 55%
    08:00 +16°C° 0.1 mm 1 mps 681 mmHg 51%
    09:00 +18°C° 0.1 mm 1 mps 682 mmHg 47%
    10:00 +18°C° 0 mm 2 mps 682 mmHg 44%
    11:00 +18°C° 0 mm 2 mps 682 mmHg 43%
    12:00 +19°C° 0 mm 2 mps 682 mmHg 42%
    13:00 +19°C° 0 mm 2 mps 681 mmHg 41%
    14:00 +19°C° 0 mm 3 mps 681 mmHg 42%
    15:00 +18°C° 0 mm 3 mps 681 mmHg 42%
    16:00 +18°C° 0 mm 3 mps 681 mmHg 43%
    17:00 +17°C° 0 mm 3 mps 681 mmHg 45%
    18:00 +16°C° 0 mm 3 mps 681 mmHg 47%
    19:00 +14°C° 0 mm 3 mps 681 mmHg 49%
    20:00 +14°C° 0 mm 2 mps 681 mmHg 51%
    21:00 +13°C° 0 mm 2 mps 681 mmHg 53%
    22:00 +13°C° 0 mm 2 mps 681 mmHg 54%
    23:00 +12°C° 0 mm 2 mps 681 mmHg 56%

    Tomorrow, 18 November, Sunday

    Time Temperature Precipitation Wind Pressure Humidity
    00:00 +12°C° 0 mm 2 mps 681 mmHg 57%
    01:00 +12°C° 0 mm 2 mps 681 mmHg 59%
    02:00 +10°C° 0 mm 2 mps 681 mmHg 60%
    03:00 +10°C° 0 mm 2 mps 681 mmHg 62%
    04:00 +10°C° 0 mm 2 mps 681 mmHg 63%
    05:00 +9°C° 0 mm 2 mps 681 mmHg 63%
    06:00 +9°C° 0 mm 2 mps 681 mmHg 64%
    07:00 +9°C° 0 mm 2 mps 681 mmHg 65%
    08:00 +12°C° 0 mm 2 mps 682 mmHg 60%
    09:00 +13°C° 0 mm 2 mps 682 mmHg 55%
    10:00 +14°C° 0 mm 2 mps 682 mmHg 50%
    11:00 +14°C° 0 mm 3 mps 682 mmHg 48%
    12:00 +16°C° 0 mm 3 mps 682 mmHg 45%
    13:00 +17°C° 0 mm 3 mps 682 mmHg 43%
    14:00 +15°C° 0 mm 4 mps 681 mmHg 44%
    15:00 +15°C° 0 mm 4 mps 681 mmHg 45%
    16:00 +15°C° 0 mm 4 mps 681 mmHg 47%
    17:00 +14°C° 0 mm 4 mps 681 mmHg 50%
    18:00 +13°C° 0 mm 3 mps 681 mmHg 54%
    19:00 +12°C° 0 mm 3 mps 682 mmHg 58%
    20:00 +12°C° 0 mm 2 mps 681 mmHg 60%
    21:00 +12°C° 0 mm 2 mps 681 mmHg 62%
    22:00 +12°C° 0 mm 2 mps 681 mmHg 64%
    23:00 +10°C° 0 mm 2 mps 681 mmHg 65%

    Day after tomorrow, 19 November, Monday

    Time Temperature Precipitation Wind Pressure Humidity
    00:00 +10°C° 0 mm 2 mps 681 mmHg 65%
    01:00 +10°C° 0 mm 2 mps 681 mmHg 66%
    02:00 +10°C° 0 mm 1 mps 680 mmHg 67%
    03:00 +10°C° 0 mm 1 mps 680 mmHg 68%
    04:00 +10°C° 0 mm 1 mps 680 mmHg 69%
    05:00 +10°C° 0 mm 1 mps 680 mmHg 69%
    06:00 +9°C° 0 mm 0 mps 680 mmHg 68%
    07:00 +9°C° 0 mm 0 mps 680 mmHg 68%
    08:00 +12°C° 0 mm 1 mps 681 mmHg 59%
    09:00 +13°C° 0 mm 1 mps 682 mmHg 51%
    10:00 +15°C° 0 mm 1 mps 682 mmHg 42%
    11:00 +16°C° 0 mm 2 mps 682 mmHg 38%
    12:00 +17°C° 0 mm 2 mps 682 mmHg 34%
    13:00 +18°C° 0 mm 3 mps 682 mmHg 30%
    14:00 +18°C° 0 mm 3 mps 682 mmHg 31%
    15:00 +18°C° 0 mm 2 mps 682 mmHg 32%
    16:00 +18°C° 0 mm 2 mps 682 mmHg 33%
    17:00 +16°C° 0 mm 1 mps 682 mmHg 37%
    18:00 +15°C° 0 mm 1 mps 682 mmHg 41%
    19:00 +13°C° 0 mm 0 mps 682 mmHg 45%
    20:00 +14°C° 0 mm 1 mps 682 mmHg 45%
    21:00 +13°C° 0 mm 1 mps 682 mmHg 46%
    22:00 +13°C° 0 mm 1 mps 683 mmHg 46%
    23:00 +13°C° 0 mm 1 mps 683 mmHg 46%

    20 November, Tuesday

    Time Temperature Precipitation Wind Pressure Humidity
    00:00 +12°C° 0 mm 1 mps 683 mmHg 47%
    01:00 +12°C° 0 mm 2 mps 683 mmHg 47%
    02:00 +12°C° 0 mm 2 mps 683 mmHg 48%
    03:00 +10°C° 0 mm 2 mps 682 mmHg 49%
    04:00 +10°C° 0 mm 2 mps 682 mmHg 51%
    05:00 +10°C° 0 mm 2 mps 683 mmHg 50%
    06:00 +10°C° 0 mm 2 mps 683 mmHg 50%
    07:00 +10°C° 0 mm 2 mps 683 mmHg 50%
    08:00 +13°C° 0 mm 2 mps 684 mmHg 44%
    09:00 +14°C° 0 mm 1 mps 684 mmHg 38%
    10:00 +16°C° 0 mm 1 mps 685 mmHg 33%
    11:00 +18°C° 0 mm 1 mps 684 mmHg 31%
    12:00 +17°C° 0 mm 2 mps 684 mmHg 30%
    13:00 +18°C° 0 mm 2 mps 683 mmHg 28%
    14:00 +18°C° 0 mm 2 mps 683 mmHg 30%
    15:00 +17°C° 0 mm 2 mps 683 mmHg 32%
    16:00 +17°C° 0 mm 2 mps 683 mmHg 33%
    17:00 +16°C° 0 mm 2 mps 683 mmHg 37%
    18:00 +15°C° 0 mm 2 mps 683 mmHg 41%
    19:00 +14°C° 0 mm 2 mps 683 mmHg 45%
    20:00 +14°C° 0 mm 2 mps 683 mmHg 46%
    21:00 +14°C° 0 mm 2 mps 683 mmHg 47%
    22:00 +13°C° 0 mm 2 mps 683 mmHg 49%
    23:00 +13°C° 0 mm 2 mps 682 mmHg 48%

    21 November, Wednesday

    Time Temperature Precipitation Wind Pressure Humidity
    00:00 +13°C° 0 mm 1 mps 682 mmHg 48%
    01:00 +13°C° 0 mm 1 mps 681 mmHg 48%
    02:00 +12°C° 0 mm 1 mps 681 mmHg 48%
    03:00 +12°C° 0 mm 1 mps 680 mmHg 48%
    04:00 +12°C° 0 mm 1 mps 680 mmHg 47%
    05:00 +12°C° 0 mm 1 mps 680 mmHg 47%
    06:00 +12°C° 0 mm 1 mps 680 mmHg 46%
    07:00 +12°C° 0 mm 1 mps 680 mmHg 46%
    08:00 +13°C° 0.4 mm 2 mps 680 mmHg 48%
    09:00 +14°C° 0.4 mm 2 mps 680 mmHg 50%
    10:00 +13°C° 0.4 mm 3 mps 680 mmHg 52%
    11:00 +13°C° 1.4 mm 3 mps 680 mmHg 60%
    12:00 +13°C° 1.4 mm 2 mps 679 mmHg 69%
    13:00 +12°C° 1.4 mm 2 mps 678 mmHg 77%
    14:00 +12°C° 0.8 mm 2 mps 678 mmHg 79%
    15:00 +12°C° 0.8 mm 2 mps 678 mmHg 81%
    16:00 +12°C° 0.8 mm 1 mps 678 mmHg 82%
    17:00 +12°C° 0.3 mm 1 mps 678 mmHg 83%
    18:00 +12°C° 0.3 mm 1 mps 678 mmHg 84%
    19:00 +12°C° 0.3 mm 1 mps 678 mmHg 84%
    20:00 +12°C° 0.2 mm 1 mps 678 mmHg 85%
    21:00 +12°C° 0.2 mm 1 mps 678 mmHg 86%
    22:00 +12°C° 0.2 mm 1 mps 678 mmHg 87%
    23:00 +11°C° 0.1 mm 1 mps 678 mmHg 88%

    22 November, Thursday

    Time Temperature Precipitation Wind Pressure Humidity
    00:00 +11°C° 0.1 mm 1 mps 678 mmHg 89%
    01:00 +11°C° 0.1 mm 1 mps 678 mmHg 90%
    02:00 +11°C° 0.1 mm 1 mps 678 mmHg 90%
    03:00 +10°C° 0.1 mm 1 mps 678 mmHg 90%
    04:00 +10°C° 0.1 mm 1 mps 678 mmHg 90%
    05:00 +10°C° 0 mm 1 mps 679 mmHg 90%
    06:00 +10°C° 0 mm 1 mps 679 mmHg 89%
    07:00 +10°C° 0 mm 1 mps 679 mmHg 88%
    08:00 +12°C° 0 mm 1 mps 680 mmHg 79%
    09:00 +13°C° 0 mm 2 mps 680 mmHg 70%
    10:00 +15°C° 0 mm 2 mps 681 mmHg 60%
    11:00 +15°C° 0 mm 2 mps 681 mmHg 55%
    12:00 +16°C° 0 mm 3 mps 680 mmHg 50%
    13:00 +17°C° 0 mm 3 mps 680 mmHg 45%
    14:00 +17°C° 0 mm 3 mps 680 mmHg 44%
    15:00 +17°C° 0 mm 3 mps 679 mmHg 43%
    16:00 +17°C° 0 mm 3 mps 679 mmHg 43%
    17:00 +16°C° 0 mm 2 mps 679 mmHg 45%
    18:00 +16°C° 0 mm 2 mps 679 mmHg 47%
    19:00 +15°C° 0 mm 2 mps 679 mmHg 50%
    20:00 +14°C° 0 mm 3 mps 679 mmHg 51%
    21:00 +13°C° 0 mm 3 mps 679 mmHg 53%
    22:00 +13°C° 0 mm 3 mps 679 mmHg 55%
    23:00 +13°C° 0 mm 4 mps 679 mmHg 57%
    Show more